Location: Brienzwiler
(46.7508°N, 8.1014°E)
Time: 17:03:30
(UTC+00:00)

TSX-5 - Pass Details

Date: 05 July 2020
Orbit: 404 x 1328 km, 68.9° (Epoch: 10 August)

Event Time Altitude Azimuth Distance (km) Brightness Sun altitude
Rises 21:31:01 0° 334° (NNW) 2,412 9.0 -15.4°
Reaches altitude 10° 21:32:58 10° 339° (NNW) 1,599 7.5 -15.5°
Maximum altitude 21:36:23 55° 58° (ENE) 621 4.0 -15.8°
Enters shadow 21:38:15 28° 125° (SE) 1,049 4.7 -15.9°
